Find Starlink 31750

NORAD ID: 59552 Int'l Des: 2024-074 Owner: SPXS Country: US Constellation: starlink operational
LEOCIRCULAR

实时位置

正在加载3D地球...

关于 Starlink 31750

正在加载描述...

即将过境

Passes for default location (London). Set your location on the main map for personalized predictions.

高度历史

Loading altitude history...

两行轨道根数

1 59552U 24074U 26124.06962644 .00001902 00000-0 78619-4 0 9992
2 59552 43.0050 30.7932 0000937 270.8073 89.2671 15.27580533114480
Epoch: May 4, 2026 • Age: 10 hours

当前状态

高度 482.6 km
速度 7.63 km/s
星下点 19.02°N, 19.6°E
发射日期 Apr 18, 2024
运行时间 2 years
类型 internet

技术详情

分类 Payload
质量 730.00 kg
干质量 700.00 kg
总质量 730.00 kg
长度 0.30 m
直径 4.10 m
跨度 29.00 m
形状 Box + pan
制造商 SPXS
平台类型 Starlink V2M
阶段状态 In Orbit
所有者/国家 SPXS/US

Most Searched